Location: Maddington
(51.2000°N, 1.9167°W)
Time: 10:42:12
(UTC+00:00)

NOSS 2-2 (E) - Pass Details

Date: 18 January 2021
Orbit: 465 x 1741 km, 63.3° (Epoch: 16 January)

Event Time Altitude Azimuth Distance (km) Brightness Sun altitude
Rises 17:56:54 0° 295° (WNW) 2,666 7.6 -12.5°
Reaches altitude 10° 17:59:27 10° 315° (NW) 1,897 6.4 -12.9°
Maximum altitude 18:02:29 19° 1° (N) 1,571 5.5 -13.4°
Enters shadow 18:05:01 13° 37° (NE) 2,008 5.7 -13.7°
